www.pogodaiklimat.ru

Погода и климат >> Архив погоды >> Таиланд >> Тха Пхра Агромет


ПОГОДА в Тха Пхра Агромете

  • Прогноз погоды в Тха Пхра Агромете
  • Монитор погоды в Тха Пхра Агромете

АРХИВ ПОГОДЫ в Тха Пхра Агромете

Время (UTC), дата Ветер
(напр.,м/с)
 
Видим.   Явления Облачность Т
(С)
Тd
(С)
f
(%)
Тe
(С)
Тes
(С)
Комфортность P
(гПа)
Po
(гПа)
Тmin
(С)
Tmax
(С)
R
(мм)
R24
(мм)
S
(см)
21 16.07 штиль 0 8000 м дымка 3/0
[Cs]
+26.5 +26.5 100 +40 +40 очень
душно
1002.1 983.3
00 17.07 штиль 0 10 км 3/0
[Cs]
+26.3 +26.3 100 +40 +42 очень
душно
1002.7 983.8 +25.1
03 17.07 Ю 4 10 км 3/1 600 м
[Cu hum Cs]
+32.3 +26.5 72 +49 +59 опасность
перегрева
1003.2 984.8
06 17.07 штиль 0 10 км 4/3 600 м
[Cu hum Cs]
+35.8 +24.8 53 +49 +68 опасность
перегрева
1001.4 983.1
09 17.07 Ю 4 10 км 4/3 600 м
[Cu hum Cs]
+36.7 +22.7 45 +46 +50 опасность
перегрева
998.9 980.8
12 17.07 штиль 0 10 км 3/1 600 м
[Cu hum Cs]
+34.0 +24.5 58 +47 +47 опасность
перегрева
999.2 980.9 +37.4
15 17.07 штиль 0 10 км 6/3 600 м
[Cu hum Ac lent Cs]
+31.5 +25.1 69 +45 +45 опасность
перегрева
1002.1 983.6
18 17.07 ЮЗ 4 8000 м дымка 4/1 600 м
[Cu hum Cs]
+29.6 +23.8 71 +41 +41 опасность
перегрева
1002.3 983.7
21 17.07 Ю 3 8000 м дымка 4/1 600 м
[Cu hum Cs]
+28.1 +24.7 82 +40 +40 очень
душно
1001.8 983.1
00 18.07 Ю 2 10 км 3/0
[Ac trans Cs]
+28.3 +25.5 85 +42 +44 опасность
перегрева
1002.5 983.7 +27.4
03 18.07 Ю 2 10 км 8/0
[Ac trans Cs]
+32.5 +25.3 66 +47 +59 опасность
перегрева
1002.4 983.9
06 18.07 штиль 0 10 км 8/4 600 м
[Sc Cs]
+36.3 +24.1 50 +48 +63 опасность
перегрева
1000.7 982.5
09 18.07 Ю 2 10 км 8/3 600 м
[Sc Ac trans Cs]
+37.2 +23.0 44 +47 +50 опасность
перегрева
998.9 980.8
12 18.07 штиль 0 10 км 8/3 600 м
[Cu med, cong Ac lent Cs]
+33.2 +24.1 59 +45 +45 опасность
перегрева
1000.1 981.8 +37.6
15 18.07 Ю 2 10 км в посл. час дождь 9/3 600 м
[Sc Ac As Cs]
+29.8 +23.4 69 +40 +40 очень
душно
1002.9 984.2 0.0
18 18.07 штиль 0 10 км {дождь} 8/0
[Ac trans Cs]
+29.8 +23.6 69 +40 +40 очень
душно
1001.9 983.3 0.0
21 18.07 Ю 2 8000 м дымка 3/0
[Cs]
+29.0 +23.2 71 +39 +39 очень
душно
1001.2 982.5
00 19.07 Ю 1 10 км 6/0
[Cs]
+28.5 +23.6 75 +39 +41 очень
душно
1002.5 983.8 +27.7
03 19.07 Ю 4 10 км 3/0
[Ac lent Cs]
+33.0 +23.8 59 +45 +54 опасность
перегрева
1003.4 985.0
06 19.07 ЮВ 3 10 км 8/4 600 м
[Cu med, cong Ac trans Cs]
+37.0 +22.4 43 +46 +53 опасность
перегрева
1002.4 984.2
09 19.07 Ю 4 10 км 6/4 600 м
[Cu med, cong Ac trans Ci fib]
+38.5 +22.0 39 +47 +49 опасность
перегрева
999.3 981.3
12 19.07 штиль 0 10 км 6/3 600 м
[Cu med, cong Ac trans Cs]
+35.1 +24.5 54 +48 +48 опасность
перегрева
1000.1 981.8 +39.0
15 19.07 Ю 5 10 км 8/4 600 м
[Cu med, cong Cs]
+32.0 +24.1 63 +44 +44 опасность
перегрева
1002.9 984.4
18 19.07 ЮЗ 5 10 км 3/1 600 м
[Cu hum Cs]
+30.5 +23.6 67 +42 +42 опасность
перегрева
1003.0 984.4
21 19.07 ЮЗ 3 8000 м дымка 3/0
[Ac lent Cs]
+28.9 +24.0 75 +40 +40 очень
душно
1002.9 984.2
00 20.07 штиль 0 10 км 5/0
[Cs]
+28.5 +23.6 75 +39 +41 очень
душно
1004.7 986.0 +27.6
03 20.07 Ю 4 10 км 3/0
[Cs]
+32.9 +23.7 59 +44 +55 опасность
перегрева
1005.1 986.6
06 20.07 Ю 3 10 км 3/3 600 м
[Cu hum Cs]
+37.0 +23.1 45 +47 +59 опасность
перегрева
1003.2 985.0
09 20.07 штиль 0 10 км 4/4 600 м
[Cu hum Cs]
+38.8 +22.2 39 +47 +53 опасность
перегрева
1000.2 982.2
12 20.07 Ю 9 7000 м гроза, ливневой дождь 9/4 600 м
[Cb cap Ac As Cs]
+30.0 +23.6 69 +41 +41 опасность
перегрева
1001.9 983.3 +39.2 0.0
15 20.07 штиль 0 6000 м слаб. дождь {гроза} 10/4 600 м
[Sc Ac As]
+26.2 +25.5 96 +38 +38 очень
душно
1006.0 987.1 3
18 20.07 штиль 0 7000 м дымка {гроза, дождь} 8/3 600 м
[Sc Ac As Cs]
+26.3 +25.4 95 +38 +38 очень
душно
1005.4 986.5 4
21 20.07 штиль 0 8000 м дымка 4/0
[Cs]
+26.1 +25.4 96 +38 +38 очень
душно
1005.2 986.3
00 21.07 Ю 2 10 км 9/1 600 м
[Sc Ac As Cs]
+26.9 +25.6 93 +40 +41 очень
душно
1006.3 987.4 +25.7
03 21.07 Ю 2 10 км 5/1 600 м
[Sc Ac trans Cs]
+31.4 +24.9 68 +45 +56 опасность
перегрева
1006.6 988.0
06 21.07 Ю 3 10 км 3/3 600 м
[Sc Ci fib]
+35.0 +24.1 53 +47 +59 опасность
перегрева
1004.7 986.4
09 21.07 штиль 0 10 км 8/4 600 м
[Cu Sc Ac As Cs]
+33.5 +25.5 63 +48 +52 опасность
перегрева
1002.8 984.4
12 21.07 Ю 1 7000 м слаб. дождь 10/4 600 м
[Cb cap Ac As Cs]
+29.2 +26.1 83 +44 +44 опасность
перегрева
1003.7 985.0 +36.3 0.2
15 21.07 Ю 3 8000 м дымка {гроза, дождь} 10/4 600 м
[Sc Ac As Cs]
+27.8 +24.5 82 +39 +39 очень
душно
1006.6 987.8 0.2
18 21.07 штиль 0 8000 м слаб. дождь {гроза} 10/4 600 м
[Sc Ac As Cs]
+27.2 +25.5 90 +40 +40 очень
душно
1006.0 987.1 0.0
21 21.07 штиль 0 8000 м дымка {дождь} 10/3 600 м
[Sc Ac As Cs]
+26.3 +25.4 95 +38 +38 очень
душно
1005.3 986.4 0.0
00 22.07 Ю 3 8000 м дымка {дождь} 10/6 600 м
[Sc Ac As]
+26.9 +25.6 93 +40 +40 очень
душно
1006.4 987.5 +25.8 0.4
03 22.07 З 1 10 км 10/6 600 м
[Sc Ac As]
+30.5 +25.6 75 +45 +47 опасность
перегрева
1006.7 988.0
06 22.07 Ю 2 10 км 10/4 600 м
[Sc Ac As Cs]
+33.4 +24.3 59 +46 +52 опасность
перегрева
1005.5 987.1
09 22.07 штиль 0 10 км 10/4 600 м
[Sc Ac As Cs]
+32.9 +22.9 56 +43 +46 опасность
перегрева
1003.2 984.8
12 22.07 штиль 0 10 км 10/6 600 м
[Sc Ac As Cs]
+31.1 +25.2 71 +45 +45 опасность
перегрева
1003.9 985.3 +33.6
15 22.07 штиль 0 8000 м дымка 10/6 600 м
[Sc Ac As Cs]
+28.8 +24.9 79 +41 +41 опасность
перегрева
1005.7 987.0
18 22.07 Ю 2 8000 м дымка 10/6 600 м
[Sc Ac As]
+27.4 +24.4 84 +39 +39 очень
душно
1005.7 986.9
21 22.07 Ю 2 8000 м слаб. дождь 10/4 600 м
[Sc As op]
+26.6 +25.0 91 +38 +38 очень
душно
1005.0 986.1 0.0
00 23.07 штиль 0 10 км {дождь} 10/3 600 м
[Sc Ac As Cs]
+27.0 +25.0 89 +39 +40 очень
душно
1005.6 986.8 +26.0 0.0
03 23.07 штиль 0 10 км 8/3 600 м
[Cu hum Ac lent Cs]
+31.5 +26.0 73 +47 +57 опасность
перегрева
1005.8 987.2
06 23.07 Ю 4 10 км 9/3 600 м
[Cu hum Ac As Cs]
+34.4 +24.6 57 +47 +53 опасность
перегрева
1003.3 984.9
09 23.07 Ю 5 10 км 9/4 600 м
[Sc Ac As Cs]
+34.6 +23.6 53 +46 +47 опасность
перегрева
1001.4 983.1
12 23.07 штиль 0 8000 м {дождь} 9/3 600 м
[Sc Ac As Cs]
+28.4 +26.0 87 +43 +43 опасность
перегрева
1002.3 983.6 +35.9 1
15 23.07 штиль 0 8000 м дымка 8/3 600 м
[Sc Ac As Cs]
+28.1 +25.8 87 +42 +42 опасность
перегрева
1005.2 986.4
18 23.07 штиль 0 7000 м слаб. дождь 10/3 600 м
[Sc Ac As Cs]
+28.1 +26.0 88 +42 +42 опасность
перегрева
1004.7 986.0 0.0

 

Местоположение метеостанции Тха Пхра Агромет (Таиланд): широта 16.33 долгота 102.82 высота над уровнем моря 166 м.

В архиве по умолчанию представлена погода в Тха Пхра Агромете за последнюю неделю. Архивные данные за месяц целиком и за предыдущие месяцы, начиная с января 2011 года, Вы можете получить, выбрав интересующий диапазон дат из раскрывающегося списка и нажав кнопку "Ввод!".


*Определитесь, кто Вы:
робот инопланетянин человек

Внимание! Время в таблицах - всемирное. Для получения местного времени необходимо прибавить поправку, которая равна 7 ч.

Смотрите также архив погоды в соседних городах и на ближайших метеорологических станциях:

Погода в Кхонкэне (Таиланд) (11 км)
Погода в Косумпхисаи (Таиланд) (28 км)
Погода в Камаласаи (Таиланд) (81 км)
Погода в Рой Эт Агромете (Таиланд) (90 км)
Погода в Рой Эт (Таиланд) (97 км)
Погода в Чайяпхуме (Таиланд) (103 км)
Погода в Нонгбуалампху (Таиланд) (108 км)
Погода в Удонтхани (Таиланд) (117 км)
Погода в Бури-Рам (Таиланд) (131 км)
Погода в Тха Тум (Таиланд) (145 км)

Пояснения к столбцам:

Ветер - указаны скорость ветра в м/с - средняя за 10 мин, порывы в срок и между сроками (в фигурных скобках) и направление, откуда дует ветер: С - северный, СВ - северо-восточный, В - восточный, ЮВ - юго-восточный, Ю - южный, ЮЗ - юго-западный, З - западный, СЗ - северо-западный.
Видимость - горизонтальная дальность видимости в метрах или километрах. При видимости от 1 до 10 км при отсутствии осадков обычно наблюдается дымка, при ухудшении видимости до 1 км и менее - туман. В сухую погоду видимость может ухудшаться дымом, пылью или мглою.
Явления - указаны атмосферные явления, наблюдавшиеся в срок или в последний час перед сроком; фигурными скобками обозначены явления, наблюдавшиеся между сроками (за 1-3 часа до срока); квадратными скобками обозначены град или гололедные отложения с указанием их диаметра в мм.
Облачность - указаны через наклонную черту общая и нижняя облачность в баллах и высота нижней границы облаков в метрах; квадратными скобками обозначены формы облаков: Ci - перистые, Cs - перисто-слоистые, Cc - перисто-кучевые, Ac - высококучевые, As - высокослоистые, Sc - слоисто-кучевые, Ns - слоисто-дождевые, Cu - кучевые, Cb - кучево-дождевые. Подробнее классификацию облаков см. в Атласе облаков (PDF).
T - Температура воздуха - температура, измеренная на высоте 2 м над землей.
Td - Температура точки росы - температура, при понижении до которой содержащийся в воздухе водяной пар достигнет насыщения.
f - Относительная влажность воздуха - влажноcть воздуха, измеренная на высоте 2 м над землей.
Te - Эффективная температура - температура, которую ощущает одетый по сезону человек в тени. Характеристика душности погоды. При расчете учитывается влияние влажности воздуха и скорости ветра на теплоощущения человека.
Tes - Эффективная температура на солнце - температура, которую ощущает человек, с поправкой на солнечный нагрев. Характеристика знойности погоды. Зависит от высоты солнца над горизонтом, облачности и скорости ветра. Ночью, в пасмурную погоду, а также при ветре 12 м/с и более поправка равна нулю.
P - Атмосферное давление - приведенное к уровню моря атмосферное давление.
Po - Атмосферное давление - измеренное на уровне метеостанции атмосферное давление.
Tmin - Минимальная температура - минимум температуры воздуха на высоте 2 м над землей.
Tmax - Максимальная температура - максимум температуры воздуха на высоте 2 м над землей.
R - Количество осадков - Количество выпавших осадков за период времени, мм. При наведении курсора мыши на число - период времени, за который выпало указанное количество осадков.
R24 - Количество осадков - Количество выпавших осадков за 24 часа, мм.
S - Снежный покров - Высота снежного покрова, см. При наведении курсора мыши на число - состояние снежного покрова и степень покрытия местности в баллах.